GW4369 Weather Reports


time (UTC)temp
C
wind
direction
speed
KPH
gust
KPH
rain 1hr
cm
rain 24hr
cm
rain mn
cm
humidity
%
barometer
mb
20260507030101 -17 115 0.0 0.0 0.00 0.00 0.00
20260507025558 -17 115 1.6 1.6 0.00 0.00 0.00
20260507025055 -17 115 1.6 3.2 0.00 0.00 0.00
20260507024553 -17 115 0.0 1.6 0.00 0.00 0.00
20260507024049 -17 115 0.0 1.6 0.00 0.00 0.00
20260507023545 -17 115 1.6 1.6 0.00 0.00 0.00
20260507023043 -17 115 0.0 1.6 0.00 0.00 0.00
20260507022539 -17 115 0.0 1.6 0.00 0.00 0.00
20260507022034 -17 115 3.2 3.2 0.00 0.00 0.00
20260507021531 -17 115 1.6 3.2 0.00 0.00 0.00
20260507021028 -17 115 0.0 3.2 0.00 0.00 0.00
20260507020525 -17 115 0.0 0.0 0.00 0.00 0.00
20260507020021 -17 115 0.0 1.6 0.00 0.00 0.00
20260507015520 -17 115 1.6 3.2 0.00 0.00 0.00
20260507015017 -17 115 1.6 3.2 0.00 0.00 0.00
20260507014513 -17 115 1.6 3.2 0.00 0.00 0.00
20260507014009 -17 115 0.0 3.2 0.00 0.00 0.00
20260507013506 -17 115 1.6 1.6 0.00 0.00 0.00
20260507013004 -17 115 0.0 0.0 0.00 0.00 0.00
20260507012501 -17 115 1.6 1.6 0.00 0.00 0.00
20260507011957 -17 115 1.6 3.2 0.00 0.00 0.00
20260507011454 -17 115 1.6 3.2 0.00 0.00 0.00
20260507010949 -17 115 0.0 1.6 0.00 0.00 0.00
20260507010444 -17 115 1.6 3.2 0.00 0.00 0.00
20260507005941 -17 115 0.0 1.6 0.00 0.00 0.00
20260507005438 -17 115 1.6 3.2 0.00 0.00 0.00
20260507004935 -17 115 1.6 4.8 0.00 0.00 0.00
20260507004432 -17 115 1.6 4.8 0.00 0.00 0.00
20260507003930 -17 115 1.6 3.2 0.00 0.00 0.00
20260507003425 -17 115 3.2 4.8 0.00 0.00 0.00
20260507002920 -17 115 3.2 4.8 0.00 0.00 0.00
20260507002416 -17 115 0.0 1.6 0.00 0.00 0.00
20260507001913 -17 115 0.0 1.6 0.00 0.00 0.00
20260507001410 -17 115 3.2 3.2 0.00 0.00 0.00
20260507000907 -17 115 3.2 3.2 0.00 0.00 0.00
20260507000405 -17 115 1.6 1.6 0.00 0.00 0.00
20260506235859 -17 115 3.2 3.2 0.00 0.00 0.00
20260506235356 -17 115 0.0 3.2 0.00 0.00 0.00
20260506234851 -17 115 3.2 4.8 0.00 0.00 0.00
20260506234349 -17 115 1.6 4.8 0.00 0.00 0.00
20260506233847 -17 115 4.8 4.8 0.00 0.00 0.00
20260506233343 -17 115 1.6 3.2 0.00 0.00 0.00
20260506232840 -17 115 3.2 4.8 0.00 0.00 0.00
20260506232336 -17 115 3.2 3.2 0.00 0.00 0.00
20260506231833 -17 115 1.6 3.2 0.00 0.00 0.00
20260506231331 -17 115 1.6 3.2 0.00 0.00 0.00
20260506230828 -17 115 3.2 3.2 0.00 0.00 0.00
20260506230324 -17 115 1.6 4.8 0.00 0.00 0.00
20260506225820 -17 115 3.2 4.8 0.00 0.00 0.00
20260506225318 -17 115 3.2 4.8 0.00 0.00 0.00
20260506224814 -17 115 3.2 4.8 0.00 0.00 0.00
20260506224311 -17 115 1.6 3.2 0.00 0.00 0.00
20260506223808 -17 115 1.6 4.8 0.00 0.00 0.00
20260506223303 -17 115 3.2 4.8 0.00 0.00 0.00
20260506222801 -17 115 4.8 4.8 0.00 0.00 0.00
20260506222256 -17 115 3.2 4.8 0.00 0.00 0.00
20260506221754 -17 115 1.6 4.8 0.00 0.00 0.00
20260506221252 -17 115 1.6 4.8 0.00 0.00 0.00
20260506220749 -17 115 1.6 3.2 0.00 0.00 0.00
20260506220243 -17 115 1.6 3.2 0.00 0.00 0.00
20260506215741 -17 115 0.0 3.2 0.00 0.00 0.00
20260506215236 -17 115 4.8 6.4 0.00 0.00 0.00
20260506214732 -17 115 0.0 6.4 0.00 0.00 0.00
20260506214230 -17 115 3.2 4.8 0.00 0.00 0.00
20260506213728 -17 115 3.2 6.4 0.00 0.00 0.00
20260506213225 -17 115 4.8 6.4 0.00 0.00 0.00
20260506212722 -17 115 4.8 9.7 0.00 0.00 0.00
20260506212218 -17 115 4.8 6.4 0.00 0.00 0.00
20260506211713 -17 115 3.2 4.8 0.00 0.00 0.00
20260506211210 -17 115 3.2 9.7 0.00 0.00 0.00
20260506210707 -17 115 1.6 3.2 0.00 0.00 0.00
20260506210204 -17 115 0.0 3.2 0.00 0.00 0.00
20260506205701 -17 115 1.6 3.2 0.00 0.00 0.00
20260506205155 -17 115 1.6 3.2 0.00 0.00 0.00
20260506204653 -17 115 0.0 1.6 0.00 0.00 0.00
20260506204150 -17 115 0.0 3.2 0.00 0.00 0.00
20260506203648 -17 115 0.0 3.2 0.00 0.00 0.00
20260506203145 -17 115 3.2 4.8 0.00 0.00 0.00
20260506202643 -17 115 1.6 4.8 0.00 0.00 0.00
20260506202139 -17 115 1.6 1.6 0.00 0.00 0.00
20260506201636 -17 115 0.0 1.6 0.00 0.00 0.00
20260506201132 -17 115 0.0 1.6 0.00 0.00 0.00
20260506200629 -17 115 1.6 6.4 0.00 0.00 0.00
20260506200126 -17 115 1.6 4.8 0.00 0.00 0.00
20260506195622 -17 115 1.6 4.8 0.00 0.00 0.00
20260506195119 -17 115 0.0 1.6 0.00 0.00 0.00
20260506194616 -17 115 0.0 3.2 0.00 0.00 0.00
20260506194113 -17 115 1.6 3.2 0.00 0.00 0.00
20260506193611 -17 115 0.0 3.2 0.00 0.00 0.00
20260506193108 -17 115 3.2 4.8 0.00 0.00 0.00
20260506192604 -17 115 1.6 3.2 0.00 0.00 0.00
20260506192100 -17 115 3.2 3.2 0.00 0.00 0.00
20260506191557 -17 115 0.0 1.6 0.00 0.00 0.00
20260506191053 -17 115 1.6 1.6 0.00 0.00 0.00
20260506190550 -17 115 0.0 3.2 0.00 0.00 0.00
20260506190047 -17 115 0.0 1.6 0.00 0.00 0.00
20260506185544 -17 115 1.6 3.2 0.00 0.00 0.00
20260506185041 -17 115 3.2 4.8 0.00 0.00 0.00
20260506184538 -17 115 1.6 3.2 0.00 0.00 0.00
20260506184036 -17 115 0.0 0.0 0.00 0.00 0.00
20260506183531 -17 115 0.0 1.6 0.00 0.00 0.00
20260506183028 -17 115 1.6 4.8 0.00 0.00 0.00
20260506182526 -17 115 0.0 1.6 0.00 0.00 0.00
20260506182023 -17 115 0.0 3.2 0.00 0.00 0.00
20260506181520 -17 115 1.6 1.6 0.00 0.00 0.00
20260506181017 -17 115 1.6 3.2 0.00 0.00 0.00
20260506180514 -17 115 4.8 4.8 0.00 0.00 0.00
20260506180010 -17 115 0.0 4.8 0.00 0.00 0.00
20260506175507 -17 115 1.6 6.4 0.00 0.00 0.00
20260506175003 -17 115 0.0 0.0 0.00 0.00 0.00
20260506174502 -17 115 1.6 3.2 0.00 0.00 0.00
20260506173957 -17 115 0.0 1.6 0.00 0.00 0.00
20260506173455 -17 115 0.0 1.6 0.00 0.00 0.00
20260506172952 -17 115 0.0 1.6 0.00 0.00 0.00
20260506172450 -17 115 0.0 3.2 0.00 0.00 0.00
20260506171945 -17 115 1.6 3.2 0.00 0.00 0.00
20260506171443 -17 115 0.0 3.2 0.00 0.00 0.00
20260506170941 -17 115 4.8 4.8 0.00 0.00 0.00
20260506170437 -17 115 1.6 3.2 0.00 0.00 0.00
20260506165936 -17 115 1.6 3.2 0.00 0.00 0.00
20260506165434 -17 115 0.0 0.0 0.00 0.00 0.00
20260506164924 -17 115 1.6 4.8 0.00 0.00 0.00
20260506164421 -17 115 1.6 6.4 0.00 0.00 0.00
20260506163919 -17 115 0.0 3.2 0.00 0.00 0.00
20260506163413 -17 115 1.6 3.2 0.00 0.00 0.00
20260506162908 -17 115 0.0 3.2 0.00 0.00 0.00
20260506162406 -17 115 1.6 3.2 0.00 0.00 0.00
20260506161903 -17 115 0.0 3.2 0.00 0.00 0.00
20260506161401 -17 115 1.6 1.6 0.00 0.00 0.00
20260506160859 -17 115 0.0 3.2 0.00 0.00 0.00
20260506160355 -17 115 3.2 3.2 0.00 0.00 0.00
20260506155853 -17 115 0.0 3.2 0.00 0.00 0.00
20260506155350 -17 115 1.6 3.2 0.00 0.00 0.00
20260506153507 -17 0.0 0.0 0.00 0.00 0.00
20260506153005 -17 0.0 0.0 0.00 0.00 0.00
20260506152502 -17 0.0 0.0 0.00 0.00 0.00
20260506152000 -17 0.0 0.0 0.00 0.00 0.00
20260506151457 -17 0.0 0.0 0.00 0.00 0.00
20260506150954 -17 0.0 0.0 0.00 0.00 0.00
20260506145739 -17 0.0 0.0 0.00 0.00 0.00
20260506145235 -17 0.0 0.0 0.00 0.00 0.00
20260506144733 -17 0.0 0.0 0.00 0.00 0.00
20260506144230 -17 0.0 0.0 0.00 0.00 0.00
20260506143728 -17 0.0 0.0 0.00 0.00 0.00
20260506143225 -17 0.0 0.0 0.00 0.00 0.00
20260506142724 -17 0.0 0.0 0.00 0.00 0.00
20260506142221 -17 0.0 0.0 0.00 0.00 0.00
20260506141719 -17 0.0 0.0 0.00 0.00 0.00
20260506141217 -17 0.0 0.0 0.00 0.00 0.00
20260506140714 -17 0.0 0.0 0.00 0.00 0.00
20260506140211 -17 0.0 0.0 0.00 0.00 0.00
20260506135708 -17 0.0 0.0 0.00 0.00 0.00
20260506135204 -17 0.0 0.0 0.00 0.00 0.00
20260506134701 -17 0.0 0.0 0.00 0.00 0.00
20260506134157 -17 0.0 0.0 0.00 0.00 0.00
20260506133654 -17 0.0 0.0 0.00 0.00 0.00
20260506133151 -17 0.0 0.0 0.00 0.00 0.00
20260506132648 -17 0.0 0.0 0.00 0.00 0.00
20260506132145 -17 0.0 0.0 0.00 0.00 0.00
20260506131643 -17 0.0 0.0 0.00 0.00 0.00
20260506131139 -17 0.0 0.0 0.00 0.00 0.00
20260506130636 -17 0.0 0.0 0.00 0.00 0.00
20260506130133 -17 0.0 0.0 0.00 0.00 0.00
20260506125631 -17 0.0 0.0 0.00 0.00 0.00
20260506125129 -17 0.0 0.0 0.00 0.00 0.00
20260506124626 -17 0.0 0.0 0.00 0.00 0.00
20260506124124 -17 0.0 0.0 0.00 0.00 0.00
20260506123621 -17 0.0 0.0 0.00 0.00 0.00
20260506123120 -17 0.0 0.0 0.00 0.00 0.00
20260506122616 -17 0.0 0.0 0.00 0.00 0.00
20260506122114 -17 0.0 0.0 0.00 0.00 0.00
20260506121612 -17 0.0 0.0 0.00 0.00 0.00
20260506121108 -17 0.0 0.0 0.00 0.00 0.00
20260506120606 -17 0.0 0.0 0.00 0.00 0.00
20260506115601 -17 0.0 0.0 0.00 0.00 0.00
20260506115059 -17 0.0 0.0 0.00 0.00 0.00
20260506114556 -17 0.0 0.0 0.00 0.00 0.00
20260506114054 -17 0.0 0.0 0.00 0.00 0.00
20260506113552 -17 0.0 0.0 0.00 0.00 0.00
20260506113049 -17 0.0 0.0 0.00 0.00 0.00
20260506112545 -17 0.0 0.0 0.00 0.00 0.00
20260506112043 -17 0.0 0.0 0.00 0.00 0.00
20260506111541 -17 0.0 0.0 0.00 0.00 0.00
20260506111037 -17 0.0 0.0 0.00 0.00 0.00
20260506110535 -17 0.0 0.0 0.00 0.00 0.00
20260506110033 -17 0.0 0.0 0.00 0.00 0.00
20260506105528 -17 0.0 0.0 0.00 0.00 0.00
20260506105026 -17 0.0 0.0 0.00 0.00 0.00
20260506104524 -17 0.0 0.0 0.00 0.00 0.00
20260506104022 -17 0.0 0.0 0.00 0.00 0.00
20260506103518 -17 0.0 0.0 0.00 0.00 0.00
20260506103015 -17 0.0 0.0 0.00 0.00 0.00
20260506102514 -17 0.0 0.0 0.00 0.00 0.00
20260506102011 -17 0.0 0.0 0.00 0.00 0.00
20260506101507 -17 0.0 0.0 0.00 0.00 0.00
20260506101004 -17 0.0 0.0 0.00 0.00 0.00
20260506100503 -17 0.0 0.0 0.00 0.00 0.00
20260506100000 -17 0.0 0.0 0.00 0.00 0.00
20260506095459 -17 0.0 0.0 0.00 0.00 0.00
20260506094954 -17 0.0 0.0 0.00 0.00 0.00
20260506094453 -17 0.0 0.0 0.00 0.00 0.00
20260506093950 -17 0.0 0.0 0.00 0.00 0.00
20260506093448 -17 0.0 0.0 0.00 0.00 0.00
20260506092945 -17 0.0 0.0 0.00 0.00 0.00
20260506092443 -17 0.0 0.0 0.00 0.00 0.00
20260506091939 -17 0.0 0.0 0.00 0.00 0.00
20260506091438 -17 0.0 0.0 0.00 0.00 0.00
20260506090935 -17 0.0 0.0 0.00 0.00 0.00
20260506090432 -17 0.0 0.0 0.00 0.00 0.00
20260506085929 -17 0.0 0.0 0.00 0.00 0.00
20260506085426 -17 0.0 0.0 0.00 0.00 0.00
20260506084922 -17 0.0 0.0 0.00 0.00 0.00
20260506084420 -17 0.0 0.0 0.00 0.00 0.00
20260506083915 -17 0.0 0.0 0.00 0.00 0.00
20260506083413 -17 0.0 0.0 0.00 0.00 0.00
20260506082910 -17 0.0 0.0 0.00 0.00 0.00
20260506082407 -17 0.0 0.0 0.00 0.00 0.00
20260506081902 -17 0.0 0.0 0.00 0.00 0.00
20260506081401 -17 0.0 0.0 0.00 0.00 0.00
20260506080858 -17 0.0 0.0 0.00 0.00 0.00
20260506080355 -17 0.0 0.0 0.00 0.00 0.00
20260506073339 -17 0.0 0.0 0.00 0.00 0.00
20260506072835 -17 0.0 0.0 0.00 0.00 0.00
20260506072333 -17 0.0 0.0 0.00 0.00 0.00
20260506071831 -17 0.0 0.0 0.00 0.00 0.00
20260506071329 -17 0.0 0.0 0.00 0.00 0.00
20260506070825 -17 0.0 0.0 0.00 0.00 0.00
20260506070322 -17 0.0 0.0 0.00 0.00 0.00
20260506062259 -17 0.0 0.0 0.00 0.00 0.00
20260506061755 -17 0.0 0.0 0.00 0.00 0.00
20260506061252 -17 0.0 0.0 0.00 0.00 0.00
20260506060751 -17 0.0 0.0 0.00 0.00 0.00
20260506060248 -17 0.0 0.0 0.00 0.00 0.00
20260506051220 -17 0.0 0.0 0.00 0.00 0.00
20260506050718 -17 0.0 0.0 0.00 0.00 0.00
20260506050215 -17 0.0 0.0 0.00 0.00 0.00
20260506044706 -17 0.0 0.0 0.00 0.00 0.00
20260506044203 -17 0.0 0.0 0.00 0.00 0.00
20260506043700 -17 0.0 0.0 0.00 0.00 0.00
20260506043158 -17 0.0 0.0 0.00 0.00 0.00
20260506042657 -17 0.0 0.0 0.00 0.00 0.00
20260506042154 -17 0.0 0.0 0.00 0.00 0.00
20260506041653 -17 115 0.0 0.0 0.00 0.00 0.00
20260506041149 -17 115 0.0 0.0 0.00 0.00 0.00
20260506040647 -17 115 0.0 0.0 0.00 0.00 0.00
20260506040144 -17 115 0.0 0.0 0.00 0.00 0.00
20260506035641 -17 115 0.0 0.0 0.00 0.00 0.00
20260506035137 -17 115 0.0 0.0 0.00 0.00 0.00
20260506034634 -17 115 0.0 0.0 0.00 0.00 0.00
20260506034131 -17 115 0.0 0.0 0.00 0.00 0.00
20260506033628 -17 115 0.0 0.0 0.00 0.00 0.00
20260506033125 -17 115 0.0 0.0 0.00 0.00 0.00
20260506032623 -17 115 0.0 0.0 0.00 0.00 0.00
20260506032119 -17 115 0.0 0.0 0.00 0.00 0.00
20260506031616 -17 115 0.0 0.0 0.00 0.00 0.00
20260506031113 -17 115 0.0 0.0 0.00 0.00 0.00
20260506030612 -17 115 0.0 0.0 0.00 0.00 0.00